QPF
0.00 0.00 0.00 0.00 0.00 0.00 0.00 0.00 0.00 0.00 0.00 0.00 0.00 0.00 0.00 0.00 0.00 0.00 0.00 0.00 0.00 0.00 0.00 0.00 0.00 0.00 0.00 0.00 0.00 0.00 0.00 0.01 0.02 0.03 0.04 0.06 0.09 0.14
0.00 0.00 0.00 0.00 0.00 0.00 0.00 0.00 0.00 0.00 0.00 0.00 0.00 0.00 0.00 0.00 0.00 0.00 0.00 0.00 0.00 0.00 0.00 0.00 0.00 0.00 0.00 0.00 0.00 0.00 0.00 0.00 0.00 0.01 0.01 0.02 0.03 0.05
0.00 0.00 0.00 0.00 0.00 0.00 0.00 0.00 0.00 0.00 0.00 0.00 0.00 0.00 0.00 0.00 0.00 0.00 0.00 0.00 0.00 0.00 0.00 0.00 0.00 0.00 0.00 0.00 0.00 0.00 0.00 0.00 0.00 0.00 0.00 0.01 0.02 0.03
0.00 0.00 0.00 0.00 0.00 0.00 0.01 0.00 0.00 0.01 0.01 0.00 0.00 0.00 0.00 0.00 0.00 0.00 0.00 0.00 0.00 0.00 0.00 0.00 0.00 0.00 0.00 0.00 0.00 0.00 0.00 0.00 0.00 0.00 0.00 0.00 0.01 0.01
0.01 0.01 0.01 0.01 0.01 0.01 0.01 0.01 0.01 0.01 0.01 0.01 0.00 0.00 0.00 0.00 0.00 0.00 0.00 0.00 0.00 0.00 0.00 0.00 0.00 0.00 0.00 0.00 0.00 0.00 0.00 0.00 0.00 0.00 0.00 0.00 0.00 0.00
0.01 0.01 0.01 0.00 0.00 0.00 0.00 0.00 0.00 0.00 0.00 0.00 0.00 0.00 0.00 0.00 0.00 0.00 0.00 0.00 0.00 0.00 0.00 0.00 0.00 0.00 0.00 0.00 0.00 0.00 0.00 0.00 0.00 0.00 0.00 0.00 0.00 0.00
0.01 0.01 0.01 0.00 0.00 0.00 0.00 0.00 0.00 0.00 0.00 0.00 0.00 0.00 0.00 0.00 0.00 0.00 0.00 0.00 0.00 0.00 0.00 0.00 0.00 0.00 0.00 0.00 0.00 0.00 0.00 0.00 0.00 0.00 0.00 0.00 0.00 0.00
0.02 0.01 0.01 0.01 0.01 0.00 0.00 0.01 0.01 0.01 0.01 0.00 0.00 0.00 0.00 0.00 0.00 0.00 0.00 0.00 0.00 0.00 0.00 0.00 0.00 0.00 0.00 0.00 0.00 0.00 0.00 0.00 0.00 0.00 0.00 0.00 0.00 0.00
0.03 0.02 0.02 0.01 0.01 0.01 0.01 0.01 0.01 0.01 0.00 0.01 0.00 0.00 0.00 0.00 0.00 0.00 0.00 0.00 0.00 0.00 0.00 0.00 0.00 0.00 0.00 0.00 0.00 0.00 0.00 0.00 0.00 0.00 0.00 0.00 0.00 0.00
0.02 0.02 0.01 0.01 0.01 0.01 0.01 0.01 0.01 0.00 0.01 0.01 0.01 0.00 0.00 0.00 0.00 0.01 0.00 0.00 0.00 0.00 0.00 0.00 0.00 0.00 0.00 0.00 0.00 0.00 0.00 0.00 0.00 0.00 0.00 0.00 0.00 0.00
0.03 0.03 0.02 0.01 0.02 0.02 0.02 0.01 0.01 0.01 0.01 0.02 0.01 0.01 0.01 0.01 0.01 0.01 0.01 0.01 0.00 0.00 0.00 0.00 0.00 0.00 0.00 0.00 0.00 0.00 0.00 0.00 0.00 0.00 0.00 0.00 0.00 0.00
0.05 0.04 0.03 0.03 0.03 0.03 0.02 0.02 0.01 0.01 0.02 0.02 0.01 0.01 0.01 0.01 0.02 0.02 0.01 0.01 0.01 0.00 0.00 0.00 0.00 0.00 0.00 0.00 0.00 0.00 0.00 0.00 0.00 0.00 0.00 0.00 0.00 0.00
0.04 0.04 0.04 0.05 0.05 0.04 0.03 0.03 0.02 0.02 0.02 0.02 0.01 0.01 0.01 0.01 0.01 0.01 0.01 0.01 0.01 0.00 0.00 0.00 0.00 0.01 0.01 0.00 0.00 0.00 0.00 0.00 0.00 0.00 0.00 0.00 0.00 0.00
0.06 0.07 0.08 0.09 0.07 0.07 0.06 0.05 0.04 0.04 0.03 0.02 0.01 0.01 0.01 0.01 0.01 0.01 0.01 0.01 0.01 0.01 0.00 0.01 0.01 0.01 0.01 0.00 0.00 0.00 0.00 0.00 0.00 0.00 0.00 0.00 0.00 0.00
0.09 0.09 0.08 0.07 0.06 0.05 0.04 0.04 0.03 0.03 0.02 0.02 0.01 0.01 0.01 0.01 0.01 0.02 0.02 0.01 0.01 0.01 0.00 0.01 0.01 0.01 0.01 0.01 0.00 0.00 0.00 0.00 0.00 0.00 0.00 0.00 0.00 0.00
0.06 0.05 0.05 0.04 0.03 0.03 0.03 0.03 0.02 0.02 0.02 0.02 0.01 0.01 0.01 0.01 0.02 0.02 0.02 0.02 0.03 0.02 0.02 0.02 0.03 0.03 0.02 0.02 0.01 0.01 0.00 0.00 0.00 0.00 0.00 0.00 0.00 0.00
0.05 0.04 0.04 0.03 0.03 0.03 0.03 0.03 0.02 0.02 0.02 0.02 0.02 0.01 0.01 0.01 0.01 0.01 0.01 0.02 0.02 0.01 0.01 0.02 0.03 0.03 0.03 0.03 0.02 0.01 0.01 0.01 0.01 0.01 0.01 0.00 0.00 0.00
0.04 0.03 0.03 0.04 0.04 0.03 0.03 0.03 0.03 0.03 0.03 0.02 0.01 0.01 0.01 0.01 0.01 0.01 0.01 0.01 0.01 0.01 0.02 0.03 0.05 0.05 0.04 0.02 0.02 0.02 0.02 0.02 0.01 0.01 0.01 0.02 0.01 0.00
0.03 0.03 0.03 0.03 0.03 0.03 0.03 0.02 0.02 0.02 0.02 0.02 0.01 0.01 0.01 0.01 0.00 0.00 0.00 0.01 0.01 0.01 0.01 0.02 0.04 0.07 0.07 0.03 0.02 0.02 0.03 0.03 0.02 0.02 0.02 0.02 0.01 0.01
0.02 0.02 0.02 0.02 0.02 0.02 0.02 0.02 0.02 0.02 0.02 0.01 0.01 0.01 0.01 0.01 0.01 0.01 0.01 0.01 0.02 0.02 0.02 0.03 0.03 0.04 0.04 0.03 0.02 0.02 0.02 0.02 0.03 0.02 0.02 0.02 0.01 0.01
0.01 0.01 0.01 0.01 0.01 0.01 0.01 0.01 0.01 0.01 0.01 0.01 0.01 0.01 0.01 0.01 0.01 0.02 0.02 0.02 0.02 0.03 0.04 0.04 0.05 0.06 0.06 0.07 0.04 0.02 0.01 0.02 0.02 0.02 0.02 0.02 0.01 0.01
0.02 0.02 0.02 0.02 0.02 0.01 0.01 0.01 0.01 0.01 0.01 0.01 0.02 0.02 0.02 0.02 0.03 0.03 0.03 0.04 0.05 0.05 0.05 0.04 0.04 0.05 0.06 0.07 0.06 0.03 0.01 0.01 0.02 0.02 0.02 0.02 0.02 0.01
0.01 0.01 0.01 0.02 0.02 0.02 0.01 0.01 0.01 0.01 0.01 0.01 0.02 0.02 0.02 0.02 0.03 0.03 0.04 0.04 0.04 0.04 0.05 0.04 0.04 0.05 0.05 0.04 0.04 0.03 0.02 0.01 0.02 0.02 0.02 0.02 0.02 0.01
MSLP
1020.71 1020.98 1021.29 1021.61 1021.90 1022.14 1022.29 1022.35 1022.33 1022.24 1022.10 1021.93 1021.76 1021.58 1021.40 1021.23 1021.05 1020.88 1020.71 1020.54 1020.37 1020.20 1020.03 1019.86 1019.67 1019.46 1019.23 1018.99 1018.74 1018.50 1018.31 1018.17 1018.11 1018.13 1018.24 1018.41 1018.62 1018.86
1020.59 1020.82 1021.09 1021.37 1021.62 1021.83 1021.98 1022.06 1022.07 1022.03 1021.96 1021.85 1021.73 1021.59 1021.43 1021.25 1021.05 1020.83 1020.61 1020.38 1020.15 1019.94 1019.75 1019.56 1019.38 1019.20 1019.00 1018.80 1018.59 1018.39 1018.22 1018.09 1018.02 1018.01 1018.07 1018.18 1018.33 1018.50
1020.41 1020.62 1020.85 1021.08 1021.29 1021.47 1021.60 1021.68 1021.73 1021.73 1021.71 1021.67 1021.60 1021.50 1021.37 1021.20 1020.99 1020.74 1020.47 1020.20 1019.93 1019.68 1019.45 1019.25 1019.08 1018.92 1018.77 1018.61 1018.45 1018.30 1018.16 1018.05 1017.98 1017.95 1017.97 1018.04 1018.13 1018.23
1020.18 1020.37 1020.57 1020.76 1020.93 1021.07 1021.18 1021.26 1021.32 1021.36 1021.38 1021.39 1021.38 1021.32 1021.23 1021.07 1020.87 1020.61 1020.31 1020.00 1019.70 1019.41 1019.16 1018.95 1018.78 1018.63 1018.50 1018.38 1018.26 1018.15 1018.04 1017.96 1017.89 1017.86 1017.86 1017.90 1017.95 1018.01
1019.87 1020.06 1020.23 1020.39 1020.53 1020.64 1020.73 1020.80 1020.86 1020.92 1020.98 1021.02 1021.05 1021.04 1020.98 1020.86 1020.67 1020.41 1020.11 1019.78 1019.46 1019.15 1018.87 1018.64 1018.46 1018.31 1018.19 1018.08 1017.98 1017.89 1017.81 1017.74 1017.69 1017.66 1017.66 1017.68 1017.71 1017.76
1019.45 1019.65 1019.82 1019.96 1020.07 1020.16 1020.23 1020.29 1020.35 1020.41 1020.49 1020.56 1020.62 1020.64 1020.62 1020.53 1020.36 1020.13 1019.84 1019.52 1019.18 1018.86 1018.56 1018.31 1018.10 1017.93 1017.79 1017.68 1017.58 1017.49 1017.42 1017.35 1017.31 1017.29 1017.29 1017.32 1017.36 1017.41
1018.92 1019.12 1019.29 1019.43 1019.54 1019.61 1019.67 1019.71 1019.76 1019.83 1019.91 1019.99 1020.07 1020.12 1020.13 1020.07 1019.94 1019.74 1019.47 1019.17 1018.84 1018.51 1018.20 1017.92 1017.68 1017.48 1017.31 1017.16 1017.04 1016.94 1016.85 1016.79 1016.75 1016.74 1016.75 1016.79 1016.85 1016.92
1018.26 1018.47 1018.65 1018.80 1018.91 1018.98 1019.03 1019.07 1019.11 1019.17 1019.24 1019.33 1019.41 1019.48 1019.50 1019.47 1019.38 1019.22 1018.99 1018.71 1018.40 1018.07 1017.76 1017.46 1017.19 1016.95 1016.73 1016.55 1016.39 1016.25 1016.15 1016.07 1016.03 1016.03 1016.06 1016.12 1016.20 1016.29
1017.48 1017.71 1017.90 1018.06 1018.18 1018.27 1018.32 1018.36 1018.40 1018.45 1018.52 1018.59 1018.67 1018.74 1018.78 1018.77 1018.70 1018.57 1018.38 1018.14 1017.85 1017.54 1017.23 1016.92 1016.62 1016.34 1016.09 1015.86 1015.67 1015.50 1015.37 1015.28 1015.23 1015.23 1015.27 1015.35 1015.45 1015.57
1016.63 1016.87 1017.08 1017.26 1017.41 1017.51 1017.58 1017.64 1017.68 1017.72 1017.77 1017.84 1017.90 1017.96 1018.00 1018.00 1017.95 1017.84 1017.68 1017.47 1017.21 1016.93 1016.62 1016.31 1016.00 1015.70 1015.41 1015.16 1014.92 1014.73 1014.58 1014.48 1014.42 1014.42 1014.47 1014.56 1014.67 1014.79
1015.77 1016.02 1016.26 1016.47 1016.64 1016.78 1016.87 1016.94 1016.99 1017.04 1017.08 1017.12 1017.17 1017.21 1017.23 1017.22 1017.18 1017.08 1016.94 1016.75 1016.52 1016.25 1015.96 1015.65 1015.34 1015.03 1014.74 1014.46 1014.21 1014.00 1013.84 1013.73 1013.67 1013.66 1013.71 1013.79 1013.90 1014.02
1015.00 1015.26 1015.51 1015.75 1015.96 1016.12 1016.25 1016.34 1016.41 1016.45 1016.48 1016.51 1016.53 1016.54 1016.54 1016.51 1016.45 1016.35 1016.21 1016.03 1015.81 1015.55 1015.27 1014.98 1014.68 1014.37 1014.08 1013.80 1013.55 1013.34 1013.17 1013.05 1012.99 1012.97 1013.01 1013.08 1013.17 1013.27
1014.37 1014.64 1014.92 1015.18 1015.41 1015.61 1015.77 1015.88 1015.96 1016.00 1016.02 1016.03 1016.02 1016.00 1015.96 1015.89 1015.80 1015.68 1015.53 1015.34 1015.12 1014.87 1014.60 1014.31 1014.01 1013.72 1013.44 1013.17 1012.93 1012.72 1012.55 1012.43 1012.36 1012.33 1012.35 1012.40 1012.47 1012.54
1013.94 1014.22 1014.50 1014.78 1015.03 1015.25 1015.42 1015.55 1015.63 1015.68 1015.69 1015.68 1015.64 1015.58 1015.50 1015.40 1015.27 1015.11 1014.92 1014.71 1014.47 1014.21 1013.93 1013.65 1013.36 1013.07 1012.79 1012.54 1012.30 1012.10 1011.93 1011.81 1011.73 1011.68 1011.68 1011.70 1011.74 1011.78
1013.70 1013.98 1014.27 1014.54 1014.80 1015.02 1015.19 1015.32 1015.40 1015.44 1015.44 1015.41 1015.35 1015.26 1015.14 1014.99 1014.82 1014.62 1014.39 1014.14 1013.87 1013.58 1013.29 1012.99 1012.69 1012.40 1012.13 1011.87 1011.64 1011.43 1011.26 1011.13 1011.03 1010.96 1010.93 1010.92 1010.93 1010.95
1013.62 1013.88 1014.15 1014.41 1014.65 1014.85 1015.00 1015.12 1015.19 1015.22 1015.21 1015.17 1015.09 1014.97 1014.83 1014.65 1014.43 1014.19 1013.92 1013.62 1013.31 1012.98 1012.65 1012.33 1012.01 1011.70 1011.41 1011.14 1010.90 1010.68 1010.49 1010.34 1010.21 1010.12 1010.06 1010.02 1010.01 1010.01
1013.60 1013.84 1014.08 1014.30 1014.49 1014.65 1014.78 1014.86 1014.92 1014.94 1014.92 1014.87 1014.78 1014.66 1014.50 1014.30 1014.06 1013.78 1013.47 1013.13 1012.77 1012.40 1012.03 1011.66 1011.30 1010.96 1010.64 1010.35 1010.08 1009.83 1009.62 1009.43 1009.27 1009.15 1009.06 1009.00 1008.97 1008.95
1013.56 1013.76 1013.94 1014.10 1014.24 1014.35 1014.43 1014.48 1014.52 1014.53 1014.51 1014.47 1014.39 1014.28 1014.13 1013.92 1013.67 1013.37 1013.03 1012.65 1012.25 1011.83 1011.41 1010.99 1010.59 1010.21 1009.84 1009.51 1009.20 1008.92 1008.67 1008.45 1008.26 1008.10 1007.98 1007.90 1007.85 1007.83
1013.42 1013.56 1013.68 1013.77 1013.84 1013.89 1013.93 1013.95 1013.97 1013.98 1013.98 1013.96 1013.91 1013.82 1013.69 1013.50 1013.26 1012.95 1012.59 1012.18 1011.74 1011.28 1010.80 1010.34 1009.89 1009.46 1009.05 1008.67 1008.32 1008.01 1007.72 1007.46 1007.23 1007.05 1006.90 1006.80 1006.74 1006.72
1013.12 1013.20 1013.25 1013.28 1013.29 1013.29 1013.29 1013.29 1013.31 1013.33 1013.35 1013.37 1013.36 1013.32 1013.22 1013.06 1012.82 1012.52 1012.15 1011.72 1011.24 1010.74 1010.22 1009.71 1009.21 1008.74 1008.29 1007.88 1007.50 1007.14 1006.83 1006.54 1006.29 1006.08 1005.91 1005.79 1005.72 1005.69
1012.68 1012.70 1012.69 1012.66 1012.62 1012.59 1012.56 1012.56 1012.59 1012.64 1012.70 1012.76 1012.80 1012.80 1012.74 1012.61 1012.39 1012.09 1011.71 1011.26 1010.76 1010.22 1009.67 1009.11 1008.58 1008.07 1007.59 1007.15 1006.75 1006.38 1006.04 1005.74 1005.48 1005.25 1005.07 1004.93 1004.84 1004.80
1012.13 1012.10 1012.05 1011.98 1011.91 1011.86 1011.84 1011.85 1011.90 1011.99 1012.10 1012.20 1012.29 1012.33 1012.31 1012.19 1011.98 1011.68 1011.28 1010.81 1010.27 1009.70 1009.11 1008.53 1007.96 1007.44 1006.94 1006.49 1006.09 1005.72 1005.38 1005.08 1004.81 1004.58 1004.38 1004.23 1004.12 1004.05
1011.55 1011.49 1011.40 1011.32 1011.24 1011.19 1011.19 1011.23 1011.32 1011.45 1011.60 1011.75 1011.87 1011.94 1011.92 1011.81 1011.59 1011.27 1010.84 1010.33 1009.76 1009.15 1008.53 1007.92 1007.34 1006.80 1006.31 1005.87 1005.47 1005.12 1004.80 1004.51 1004.25 1004.02 1003.82 1003.65 1003.52 1003.41
Thickness
5709 5708 5706 5705 5703 5702 5700 5698 5693 5688 5688 5691 5692 5694 5693 5693 5692 5691 5691 5690 5689 5688 5687 5686 5685 5685 5684 5683 5682 5682 5682 5682 5682 5682 5682 5682 5682 5683
5706 5704 5703 5701 5700 5698 5697 5695 5693 5690 5686 5688 5688 5690 5690 5690 5689 5688 5688 5687 5686 5685 5685 5684 5683 5683 5682 5681 5680 5680 5679 5679 5678 5678 5679 5679 5679 5679
5703 5701 5699 5698 5696 5694 5693 5691 5689 5687 5685 5686 5685 5686 5686 5686 5685 5685 5684 5683 5683 5683 5682 5681 5681 5680 5680 5679 5678 5677 5677 5676 5676 5675 5675 5675 5676 5676
5700 5698 5696 5694 5692 5690 5689 5687 5685 5684 5682 5681 5681 5681 5682 5682 5681 5680 5680 5680 5679 5679 5679 5678 5678 5677 5677 5676 5676 5675 5674 5674 5673 5673 5672 5672 5672 5672
5698 5695 5693 5690 5688 5686 5685 5683 5681 5680 5677 5676 5676 5676 5676 5676 5675 5675 5675 5674 5675 5675 5675 5675 5674 5673 5673 5672 5672 5671 5671 5670 5670 5669 5669 5668 5668 5668
5695 5692 5690 5687 5685 5683 5681 5679 5677 5674 5671 5669 5668 5669 5669 5669 5668 5668 5669 5669 5669 5670 5670 5670 5669 5669 5668 5668 5667 5667 5667 5666 5666 5665 5665 5665 5664 5664
5690 5688 5686 5684 5682 5679 5677 5674 5672 5669 5666 5664 5663 5662 5663 5661 5661 5662 5661 5662 5663 5663 5663 5664 5663 5663 5663 5663 5663 5662 5662 5662 5661 5661 5661 5661 5660 5660
5685 5683 5681 5679 5677 5674 5672 5670 5667 5664 5661 5659 5658 5657 5657 5656 5655 5654 5653 5652 5655 5657 5655 5657 5656 5657 5657 5657 5658 5658 5657 5657 5656 5656 5656 5656 5656 5656
5680 5677 5676 5675 5671 5668 5666 5664 5662 5660 5657 5655 5653 5652 5651 5651 5648 5647 5645 5645 5646 5648 5645 5649 5650 5650 5652 5652 5653 5652 5652 5651 5651 5651 5651 5651 5651 5651
5674 5671 5668 5666 5664 5661 5659 5657 5655 5653 5651 5649 5648 5647 5646 5644 5640 5639 5638 5638 5639 5639 5636 5639 5644 5644 5646 5646 5646 5646 5645 5645 5645 5645 5645 5645 5645 5645
5667 5664 5661 5659 5656 5653 5650 5649 5648 5646 5644 5642 5641 5639 5637 5635 5631 5628 5627 5627 5631 5635 5631 5630 5635 5636 5638 5639 5639 5638 5638 5638 5638 5638 5638 5638 5638 5638
5657 5655 5653 5650 5648 5644 5641 5639 5637 5637 5634 5633 5631 5630 5628 5626 5623 5620 5619 5618 5621 5624 5625 5621 5624 5623 5627 5632 5631 5630 5629 5629 5629 5629 5630 5630 5630 5629
5649 5647 5645 5641 5638 5635 5631 5630 5628 5626 5623 5621 5620 5620 5619 5617 5616 5613 5611 5609 5610 5612 5614 5610 5612 5611 5611 5618 5621 5620 5618 5618 5619 5620 5621 5622 5622 5620
5640 5637 5634 5631 5627 5624 5621 5620 5618 5614 5612 5610 5609 5609 5608 5608 5607 5605 5603 5601 5601 5602 5602 5599 5599 5600 5600 5603 5607 5610 5608 5608 5607 5610 5611 5612 5612 5613
5628 5625 5622 5619 5616 5613 5610 5608 5606 5603 5600 5599 5599 5598 5598 5598 5596 5595 5594 5592 5591 5591 5591 5589 5587 5588 5587 5589 5594 5596 5596 5598 5597 5598 5600 5601 5603 5603
5615 5611 5608 5605 5602 5599 5597 5595 5592 5590 5588 5588 5587 5587 5586 5584 5583 5582 5581 5580 5580 5583 5581 5578 5575 5574 5575 5577 5579 5582 5583 5584 5587 5586 5588 5590 5592 5593
5601 5597 5594 5591 5589 5587 5585 5583 5580 5578 5576 5575 5573 5573 5572 5571 5570 5568 5566 5565 5565 5568 5569 5567 5563 5561 5561 5563 5566 5570 5571 5573 5574 5574 5574 5578 5583 5584
5586 5583 5581 5578 5577 5575 5573 5570 5568 5565 5564 5562 5560 5559 5558 5557 5557 5555 5552 5551 5551 5552 5553 5552 5549 5548 5550 5554 5555 5557 5560 5562 5564 5563 5563 5566 5573 5577
5571 5569 5567 5565 5563 5560 5558 5556 5555 5553 5550 5548 5547 5546 5544 5543 5542 5541 5540 5538 5538 5538 5538 5536 5533 5532 5535 5544 5552 5546 5547 5551 5551 5552 5554 5557 5563 5569
5558 5556 5554 5551 5549 5546 5544 5542 5540 5539 5536 5535 5533 5532 5531 5529 5529 5528 5527 5526 5525 5525 5526 5524 5522 5520 5521 5528 5535 5539 5535 5536 5539 5543 5547 5549 5553 5556
5546 5542 5540 5538 5535 5532 5530 5528 5526 5525 5523 5521 5521 5520 5519 5517 5517 5516 5516 5514 5512 5513 5515 5516 5515 5511 5511 5513 5520 5530 5531 5529 5530 5533 5537 5540 5544 5548
5534 5530 5527 5524 5522 5519 5517 5515 5513 5512 5512 5511 5510 5509 5509 5507 5507 5507 5506 5506 5506 5506 5507 5508 5507 5504 5504 5507 5514 5521 5524 5525 5524 5525 5527 5531 5535 5542
5521 5517 5514 5511 5509 5507 5505 5504 5503 5503 5502 5502 5501 5500 5499 5499 5499 5498 5498 5498 5498 5498 5499 5501 5501 5500 5502 5504 5508 5513 5518 5520 5521 5523 5527 5529 5529 5533